TIANQI 16

导读

TIANQI 16即天启16星,是中国天启星座组网卫星之一,于2025年5月19日由谷神星一号海射型遥五运载火箭发射,属于我国首个低轨物联网通信星座天启星座。此次发射完成后,天启星座一期完成全球组网,天启16星将与其他卫星共同为全球各行业提供低成本的窄带物联网通信服务,显著提升全球覆盖通信能力,推动低轨卫星物联网产业规模化发展。

基本信息
目录编号:
64058
目录名称:
TIANQI 16
国际标识:
2025-105A
轨道中心:
EARTH
卫星名称:
TIANQI 16
卫星全名:
TIANQI 16
卫星状态:
在轨 (已飞行480 天)
发射日期:
2025-05-19 UTC
国别 :
中国 (CN)
星等 :
--
该卫星已列入 空间交会检测服务 Space Conjunction Data Service (SCDS) ,当前飞行风险评估等级: 无高风险
轨道信息
数据来源 国际轨道数据
星历时间: 2026-09-11T01:45:49+0800
16小时前
查看轨道信息
半长轴: 7274.787km
偏心率: 0.0009701
轨道倾角: 44.986°
近地点辐角 65.920°
升交点赤经 1.727°
平近点角 294.265°
近地点: 889.592km
远地点: 903.708km
周期: 102.918分钟
每日圈数: 13.991762
详细信息
使用方式:
暂无
2D轨道图
3D轨道图
轨道高度分析图
轨道倾角分析图
轨道综合分析图
查看轨道综合分析图
与全量物体交会距离演化趋势
与全量物体交会风险概率演化趋势